Location: Luxembourg
(49.6117°N, 6.1300°E)
Time: 14:23:49
(UTC+02:00)

N. Korean satellite - Visible Passes

Search period start: 21 September 2017 00:00
Search period end: 01 October 2017 00:00
Orbit: 461 x 515 km, 97.2° (Epoch: 20 September)

Date Brightness Start Highest point End Pass type
(mag) Time Alt. Az. Time Alt. Az. Time Alt. Az.
21 Sep 9.1 20:17:20 10° SSW 20:20:36 28° W 20:23:52 10° NW visible
24 Sep 9.9 20:42:19 10° SW 20:44:40 16° W 20:47:01 10° NW visible
25 Sep 9.1 20:18:04 10° SSW 20:21:17 27° W 20:24:30 10° NW visible
26 Sep 7.8 19:54:20 10° S 19:57:58 48° W 20:01:33 10° NNW visible
28 Sep 9.9 20:43:03 10° SW 20:45:19 15° W 20:47:34 10° NW visible
29 Sep 9.1 20:18:45 10° SSW 20:21:53 26° W 20:25:03 10° NW visible
30 Sep 7.9 19:55:00 10° S 19:58:34 47° W 20:02:07 10° NNW visible
